FW7253 Weather Reports


time (UTC)temp
C
wind
direction
speed
KPH
gust
KPH
rain 1hr
cm
rain 24hr
cm
rain mn
cm
humidity
%
barometer
mb
20260905214546 12 37 3.2 8.0 0.00 1.04 1.04 80 1010.8
20260905214032 12 97 1.6 9.7 0.00 1.04 1.04 80 1010.8
20260905213533 12 334 1.6 9.7 0.00 1.04 1.04 80 1010.7
20260905213053 12 41 3.2 9.7 0.00 1.04 1.04 80 1010.6
20260905212532 12 0 0.0 8.0 0.00 1.04 1.04 79 1010.6
20260905212031 12 18 1.6 8.0 0.00 1.04 1.04 79 1010.5
20260905211549 12 347 4.8 8.0 0.00 1.04 1.04 80 1010.5
20260905211032 12 0 0.0 11.3 0.00 1.04 1.04 80 1010.4
20260905210532 12 45 8.0 11.3 0.00 1.04 1.04 80 1010.3
20260905210104 12 345 3.2 11.3 0.00 1.04 1.04 83 1010.3
20260905205533 12 65 4.8 11.3 0.00 1.04 1.04 84 1010.1
20260905205033 12 18 6.4 9.7 0.00 1.04 1.04 87 1009.9
20260905204552 11 352 1.6 9.7 0.00 1.04 1.04 91 1009.9
20260905204031 11 345 3.2 9.7 0.00 1.04 1.04 93 1009.8
20260905203532 10 5 3.2 6.4 0.00 1.04 1.04 93 1009.6
20260905203047 10 29 1.6 6.4 0.00 1.04 1.04 93 1009.5
20260905202532 9 360 0.0 8.0 0.00 1.04 1.04 93 1009.5
20260905202032 9 0 0.0 8.0 0.00 1.04 1.04 92 1009.4
20260905201556 10 304 1.6 8.0 0.00 1.04 1.04 93 1009.4
20260905201031 10 0 0.0 8.0 0.00 1.04 1.04 93 1009.3
20260905200535 10 0 0.0 3.2 0.00 1.04 1.04 92 1009.2
20260905200055 10 0 0.0 3.2 0.00 1.04 1.04 92 1009.3
20260905195531 10 320 0.0 8.0 0.00 1.04 1.04 92 1009.1
20260905195031 10 0 0.0 8.0 0.00 1.04 1.04 92 1009.1
20260905194553 10 335 3.2 8.0 0.00 1.04 1.04 92 1009.0
20260905194034 10 355 3.2 8.0 0.00 1.04 1.04 92 1009.0
20260905193531 10 0 0.0 4.8 0.00 1.04 1.04 93 1008.9
20260905193050 11 0 0.0 0.0 0.00 1.04 1.04 92 1008.8
20260905192533 11 0 0.0 0.0 0.00 1.04 1.04 92 1008.8
20260905192032 11 0 0.0 0.0 0.00 1.04 1.04 92 1008.7
20260905191554 11 0 0.0 0.0 0.00 1.04 1.04 92 1008.7
20260905191031 11 0 0.0 0.0 0.00 1.04 1.04 91 1008.4
20260905190541 11 0 0.0 0.0 0.00 1.04 1.04 92 1008.4
20260905190056 11 0 0.0 0.0 0.00 1.04 1.04 91 1008.3
20260905185533 11 0 0.0 0.0 0.00 1.04 1.04 91 1008.1
20260905185031 11 0 0.0 0.0 0.00 1.04 1.04 91 1008.2
20260905184552 11 0 0.0 0.0 0.00 1.04 1.04 90 1008.1
20260905184034 11 0 0.0 0.0 0.00 1.04 1.04 91 1008.1
20260905183532 11 0 0.0 0.0 0.00 1.04 1.04 90 1008.0
20260905183047 11 0 0.0 0.0 0.00 1.04 1.04 90 1007.9
20260905182531 11 0 0.0 0.0 0.00 1.04 1.04 90 1007.8
20260905182035 11 0 0.0 0.0 0.00 1.04 1.04 89 1007.7
20260905181545 11 0 0.0 0.0 0.00 1.04 1.04 89 1007.5
20260905181032 12 0 0.0 0.0 0.00 1.04 1.04 89 1007.5
20260905180531 12 0 0.0 0.0 0.00 1.04 1.04 88 1007.4
20260905180109 12 0 0.0 0.0 0.00 1.04 1.04 88 1007.3
20260905175532 12 0 0.0 0.0 0.00 1.04 1.04 88 1007.1
20260905175031 12 0 0.0 0.0 0.00 1.04 1.04 87 1007.1
20260905174547 13 0 0.0 1.6 0.00 1.04 1.04 87 1007.0
20260905174031 13 0 0.0 1.6 0.00 1.04 1.04 87 1007.0
20260905173532 13 299 0.0 1.6 0.00 1.04 1.04 84 1006.9
20260905173108 13 0 0.0 1.6 0.00 1.04 1.04 83 1006.8
20260905172531 14 0 0.0 1.6 0.00 1.04 1.04 81 1006.6
20260905172032 15 0 0.0 1.6 0.00 1.04 1.04 79 1006.5
20260905171556 15 0 0.0 0.0 0.00 1.04 1.04 77 1006.3
20260905171031 16 0 0.0 0.0 0.00 1.04 1.04 76 1006.3
20260905170531 16 0 0.0 1.6 0.00 1.04 1.04 73 1006.1
20260905170049 17 0 0.0 4.8 0.00 1.04 1.04 72 1006.0
20260905165535 17 282 1.6 4.8 0.00 1.04 1.04 71 1005.9
20260905165033 17 272 0.0 0.0 0.00 1.04 1.04 71 1005.8
20260905164545 17 0 0.0 0.0 0.00 1.04 1.04 73 1005.7
20260905164034 17 0 0.0 1.6 0.00 1.04 1.04 71 1005.7
20260905163531 17 0 0.0 4.8 0.00 1.04 1.04 67 1005.5
20260905163054 17 0 0.0 4.8 0.00 1.04 1.04 68 1005.5
20260905162532 17 334 3.2 4.8 0.00 1.04 1.04 69 1005.5
20260905162030 17 0 1.6 4.8 0.00 1.04 1.04 69 1005.4
20260905161548 17 278 0.0 6.4 0.00 1.04 1.04 69 1005.3
20260905161032 17 0 0.0 6.4 0.00 1.04 1.04 71 1005.3
20260905160532 17 299 1.6 8.0 0.00 1.04 1.04 72 1005.2
20260905160055 16 287 4.8 8.0 0.00 1.04 1.04 71 1005.2
20260905155536 16 290 4.8 8.0 0.00 1.04 1.04 71 1005.0
20260905155031 17 290 3.2 6.4 0.00 1.04 1.04 72 1004.9
20260905154550 17 290 0.0 4.8 0.00 1.04 1.04 75 1004.8
20260905154033 16 72 1.6 4.8 0.00 1.04 1.04 73 1004.8
20260905153532 17 231 1.6 4.8 0.00 1.04 1.04 73 1004.8
20260905153053 17 297 1.6 8.0 0.00 1.04 1.04 74 1004.7
20260905152531 16 217 3.2 8.0 0.00 1.04 1.04 74 1004.6
20260905152031 16 264 3.2 8.0 0.00 1.04 1.04 75 1004.6
20260905151550 16 302 3.2 8.0 0.00 1.04 1.04 74 1004.5
20260905151033 17 310 3.2 8.0 0.00 1.04 1.04 76 1004.4
20260905150532 17 278 3.2 9.7 0.00 1.04 1.04 76 1004.3
20260905150055 17 319 1.6 9.7 0.00 1.04 1.04 77 1004.2
20260905145537 16 0 1.6 6.4 0.00 1.04 1.04 79 1004.1
20260905145031 16 302 3.2 6.4 0.00 1.04 1.04 79 1004.0
20260905144555 16 296 3.2 8.0 0.00 1.04 1.04 79 1003.9
20260905144031 16 289 4.8 8.0 0.00 1.04 1.04 78 1003.8
20260905143532 16 311 3.2 6.4 0.00 1.04 1.04 81 1003.9
20260905143052 16 343 3.2 9.7 0.00 1.04 1.04 84 1003.8
20260905142535 15 323 4.8 11.3 0.00 1.04 1.04 82 1003.8
20260905142032 15 326 4.8 11.3 0.00 1.04 1.04 82 1003.8
20260905141548 16 334 4.8 8.0 0.00 1.04 1.04 84 1003.7
20260905141034 16 316 4.8 6.4 0.00 1.04 1.04 84 1003.5
20260905140531 15 23 3.2 6.4 0.00 1.04 1.04 84 1003.6
20260905135531 15 314 0.0 4.8 0.08 1.04 1.04 87 1003.6
20260905135034 14 278 1.6 4.8 0.13 1.04 1.04 88 1003.5
20260905134600 14 334 1.6 4.8 0.18 1.04 1.04 90 1003.7
20260905134033 13 297 1.6 4.8 0.25 1.04 1.04 91 1003.6
20260905133530 13 285 3.2 4.8 0.25 1.04 1.04 92 1003.5
20260905133049 13 306 0.0 3.2 0.25 1.04 1.04 93 1003.5
20260905132531 12 0 0.0 0.0 0.25 1.04 1.04 93 1003.5
20260905132031 12 0 0.0 0.0 0.25 1.04 1.04 93 1003.5
20260905131546 11 0 0.0 3.2 0.23 1.02 1.02 93 1003.6
20260905131033 11 0 0.0 4.8 0.23 1.02 1.02 92 1003.5
20260905130532 11 351 3.2 8.0 0.23 1.02 1.02 92 1003.6
20260905130050 11 345 3.2 11.3 0.20 1.02 1.02 92 1003.5
20260905125531 11 335 4.8 12.9 0.15 0.94 0.94 91 1003.4
20260905125031 11 351 4.8 12.9 0.10 0.91 0.91 90 1003.3
20260905124553 12 314 8.0 12.9 0.05 0.84 0.84 89 1003.3
20260905124034 12 347 6.4 12.9 0.00 0.79 0.79 88 1003.2
20260905123532 13 15 4.8 12.9 0.00 0.79 0.79 87 1003.2
20260905123046 13 274 4.8 11.3 0.00 0.79 0.79 86 1003.1
20260905122531 13 323 1.6 4.8 0.00 0.79 0.79 86 1003.0
20260905122031 13 305 0.0 4.8 0.00 0.79 0.79 85 1002.9
20260905121558 13 285 1.6 4.8 0.00 0.79 0.79 85 1002.8
20260905121031 13 263 1.6 4.8 0.00 0.79 0.79 86 1002.8
20260905120531 14 283 1.6 4.8 0.00 0.79 0.79 85 1002.7
20260905120107 14 0 0.0 1.6 0.00 0.79 0.79 85 1002.6
20260905115532 13 0 0.0 3.2 0.00 0.79 0.79 85 1002.6
20260905115032 14 0 0.0 3.2 0.00 0.79 0.79 84 1002.5
20260905114559 14 218 0.0 3.2 0.00 0.79 0.79 84 1002.5
20260905114031 13 285 1.6 3.2 0.00 0.79 0.79 83 1002.5
20260905113535 14 0 0.0 3.2 0.00 0.79 0.79 83 1002.4
20260905113058 14 0 0.0 0.0 0.00 0.79 0.79 84 1002.3
20260905112531 13 0 0.0 1.6 0.00 0.79 0.79 84 1002.2
20260905112032 14 0 0.0 1.6 0.00 0.79 0.79 86 1002.1
20260905111651 13 113 0.0 3.2 0.00 0.79 0.79 86 1002.1
20260905111031 13 0 0.0 3.2 0.00 0.79 0.79 87 1002.0
20260905110530 13 0 0.0 6.4 0.00 0.79 0.79 87 1002.0
20260905110055 13 0 1.6 6.4 0.00 0.79 0.79 88 1001.9
20260905105532 13 147 0.0 6.4 0.00 0.79 0.79 88 1001.9
20260905105030 13 127 0.0 8.0 0.00 0.79 0.79 87 1001.9
20260905104555 13 118 0.0 8.0 0.00 0.79 0.79 88 1001.8
20260905104032 13 0 1.6 6.4 0.00 0.79 0.79 89 1001.7
20260905103533 14 89 0.0 6.4 0.00 0.79 0.79 90 1001.6
20260905103102 14 212 1.6 4.8 0.00 0.79 0.79 92 1001.6
20260905102530 13 0 0.0 4.8 0.00 0.79 0.79 93 1001.5
20260905102031 13 127 1.6 4.8 0.00 0.79 0.79 92 1001.5
20260905101552 13 165 1.6 4.8 0.00 0.79 0.79 94 1001.5
20260905101031 12 144 1.6 4.8 0.00 0.79 0.79 94 1001.4
20260905100531 12 115 0.0 4.8 0.00 0.79 0.79 94 1001.4
20260905100059 12 0 0.0 4.8 0.00 0.79 0.79 94 1001.4
20260905095530 12 110 1.6 4.8 0.03 0.79 0.79 94 1001.4
20260905095033 12 107 0.0 4.8 0.03 0.79 0.79 94 1001.3
20260905094554 12 98 1.6 4.8 0.03 0.79 0.79 94 1001.5
20260905094032 12 110 0.0 1.6 0.05 0.79 0.79 95 1001.4
20260905093530 12 0 0.0 1.6 0.05 0.79 0.79 95 1001.3
20260905093106 11 0 0.0 1.6 0.05 0.79 0.79 95 1001.4
20260905092533 11 0 0.0 3.2 0.05 0.79 0.79 95 1001.3
20260905092031 11 0 0.0 3.2 0.08 0.79 0.79 95 1001.3
20260905091551 11 0 0.0 0.0 0.10 0.79 0.79 96 1001.2
20260905091030 11 0 0.0 0.0 0.10 0.76 0.76 96 1001.2
20260905090535 11 0 0.0 0.0 0.13 0.76 0.76 96 1001.1
20260905090054 11 0 0.0 0.0 0.18 0.76 0.76 96 1001.1
20260905085531 11 0 0.0 0.0 0.18 0.74 0.74 96 1001.0
20260905085034 11 0 0.0 0.0 0.18 0.74 0.74 96 1000.9
20260905084557 11 0 0.0 0.0 0.18 0.74 0.74 96 1000.9
20260905084031 11 0 0.0 0.0 0.18 0.74 0.74 96 1001.0
20260905083534 11 0 0.0 1.6 0.25 0.74 0.74 96 1000.8
20260905083048 11 0 0.0 1.6 0.28 0.74 0.74 96 1000.8
20260905082531 10 0 0.0 0.0 0.28 0.74 0.74 96 1000.8
20260905082031 10 0 0.0 1.6 0.25 0.71 0.71 96 1000.8
20260905081547 10 0 0.0 1.6 0.23 0.66 0.66 96 1000.9
20260905081033 10 0 0.0 1.6 0.20 0.64 0.64 96 1000.8
20260905080530 10 0 0.0 0.0 0.18 0.61 0.61 96 1000.8
20260905080045 10 0 0.0 0.0 0.18 0.58 0.58 96 1000.8
20260905075533 10 0 0.0 0.0 0.18 0.56 0.56 96 1000.6
20260905075033 10 0 0.0 0.0 0.18 0.56 0.56 96 1000.7
20260905074553 10 0 0.0 0.0 0.18 0.56 0.56 96 1000.6
20260905074030 10 0 0.0 3.2 0.13 0.51 0.51 96 1000.5
20260905073531 10 0 0.0 3.2 0.10 0.46 0.46 96 1000.5
20260905073048 10 311 0.0 3.2 0.10 0.46 0.46 96 1000.5
20260905072531 10 0 0.0 0.0 0.18 0.46 0.46 96 1000.5
20260905072030 10 0 0.0 0.0 0.18 0.43 0.43 96 1000.4
20260905071549 10 0 0.0 0.0 0.18 0.43 0.43 96 1000.4
20260905071030 10 0 0.0 0.0 0.18 0.43 0.43 96 1000.2
20260905070534 9 0 0.0 0.0 0.15 0.41 0.41 96 1000.1
20260905070053 9 0 0.0 0.0 0.18 0.41 0.41 96 1000.2
20260905065532 9 0 0.0 0.0 0.18 0.38 0.38 96 1000.2
20260905065031 9 0 0.0 0.0 0.18 0.36 0.36 96 1000.2
20260905064558 9 0 0.0 0.0 0.18 0.36 0.36 96 1000.1
20260905064031 9 0 0.0 1.6 0.18 0.36 0.36 96 999.9
20260905063532 9 0 0.0 4.8 0.18 0.36 0.36 96 999.8
20260905063048 9 92 1.6 4.8 0.18 0.30 0.30 96 999.9
20260905062532 9 134 0.0 3.2 0.18 0.28 0.28 95 999.9
20260905062032 8 0 0.0 3.2 0.18 0.25 0.25 96 1000.0
20260905061547 8 0 0.0 1.6 0.18 0.25 0.25 96 1000.0
20260905061033 8 0 0.0 1.6 0.18 0.25 0.25 96 999.7
20260905060532 8 0 0.0 1.6 0.18 0.25 0.25 96 999.8
20260905060056 8 0 0.0 1.6 0.18 0.23 0.23 96 999.8
20260905055533 8 0 0.0 1.6 0.18 0.20 0.20 96 999.7
20260905055032 8 285 0.0 3.2 0.15 0.18 0.18 96 999.6
20260905054553 8 0 0.0 3.2 0.15 0.18 0.18 96 999.5
20260905054037 8 250 1.6 3.2 0.15 0.18 0.18 96 999.5
20260905053533 8 0 0.0 3.2 0.10 0.15 0.15 96 999.3
20260905053048 8 0 1.6 3.2 0.08 0.10 0.10 95 999.4
20260905052532 8 0 0.0 6.4 0.05 0.08 0.08 95 999.5
20260905052033 8 252 3.2 6.4 0.03 0.05 0.05 95 999.5
20260905051548 8 266 0.0 4.8 0.05 0.05 0.05 96 999.4
20260905051036 8 0 0.0 6.4 0.05 0.05 0.05 96 999.3
20260905050532 8 0 0.0 8.0 0.05 0.05 0.05 96 999.3
20260905050058 8 14 4.8 8.0 0.03 0.03 0.03 95 999.3
20260905045533 8 340 3.2 6.4 0.03 0.03 0.03 95 999.3
20260905045032 8 329 3.2 4.8 0.03 0.03 0.03 95 999.4
20260905044550 8 335 0.0 3.2 0.03 0.03 0.03 95 999.3
20260905044034 8 0 0.0 0.0 0.03 0.03 0.03 95 999.2
20260905043533 8 0 0.0 3.2 0.03 0.03 0.03 95 999.3
20260905043049 8 0 0.0 3.2 0.03 0.03 0.03 95 999.3
20260905042532 8 0 0.0 0.0 0.03 0.03 0.03 95 999.2
20260905042032 8 0 0.0 0.0 0.00 0.00 0.00 95 999.1
20260905041549 8 0 0.0 0.0 0.00 0.00 0.00 95 999.1
20260905041032 8 0 0.0 0.0 0.00 0.00 0.00 95 999.1
20260905040532 8 0 0.0 0.0 0.00 0.00 0.00 95 999.1
20260905040048 8 0 0.0 0.0 0.00 0.00 0.00 95 999.1
20260905035533 8 0 0.0 0.0 0.00 0.00 0.00 95 999.1
20260905035032 8 0 0.0 0.0 0.00 0.00 0.00 95 999.0
20260905034550 8 0 0.0 0.0 0.00 0.00 0.00 95 999.2
20260905034034 8 0 0.0 0.0 0.00 0.00 0.00 95 999.2
20260905033533 8 0 0.0 0.0 0.00 0.00 0.00 95 999.2
20260905033058 8 0 0.0 0.0 0.00 0.00 0.00 95 999.1
20260905032533 8 0 0.0 0.0 0.00 0.00 0.00 95 999.1
20260905032032 8 0 0.0 0.0 0.00 0.00 0.00 95 999.0
20260905031556 8 0 0.0 0.0 0.00 0.00 0.00 95 999.0
20260905031034 8 0 0.0 0.0 0.00 0.00 0.00 95 999.1
20260905030534 8 0 0.0 0.0 0.00 0.00 0.00 95 999.1
20260905030119 8 0 0.0 0.0 0.00 0.00 0.00 95 999.1
20260905025534 8 0 0.0 0.0 0.00 0.05 0.00 95 999.1
20260905025034 8 0 0.0 0.0 0.00 0.05 0.00 95 999.0
20260905024604 8 0 0.0 0.0 0.00 0.05 0.00 95 999.0
20260905024035 8 0 0.0 0.0 0.00 0.05 0.00 95 999.0
20260905023535 8 0 0.0 0.0 0.00 0.05 0.00 95 998.9
20260905023047 8 0 0.0 0.0 0.00 0.05 0.00 95 998.8
20260905022534 7 0 0.0 0.0 0.00 0.05 0.00 95 998.9
20260905022034 7 0 0.0 0.0 0.00 0.05 0.00 95 998.8
20260905021556 7 0 0.0 1.6 0.00 0.05 0.00 95 998.8
20260905021034 7 0 0.0 1.6 0.00 0.05 0.00 95 998.8
20260905020536 7 0 0.0 1.6 0.00 0.05 0.00 95 998.7
20260905020051 7 0 0.0 3.2 0.00 0.05 0.00 95 998.8
20260905015535 7 0 0.0 3.2 0.00 0.15 0.00 95 998.7
20260905015038 7 108 1.6 3.2 0.00 0.15 0.00 95 998.6
20260905014600 7 48 0.0 1.6 0.00 0.15 0.00 95 998.8
20260905014035 7 14 0.0 1.6 0.00 0.15 0.00 95 998.7
20260905013535 7 0 0.0 0.0 0.00 0.15 0.00 95 998.6
20260905013047 7 0 0.0 0.0 0.00 0.15 0.00 95 998.7
20260905012538 7 0 0.0 0.0 0.00 0.15 0.00 95 998.6
20260905012035 7 0 0.0 0.0 0.00 0.15 0.00 95 998.7
20260905011556 7 0 0.0 0.0 0.00 0.15 0.00 95 998.6
20260905011035 8 0 0.0 0.0 0.00 0.15 0.00 95 998.6
20260905010538 7 0 0.0 0.0 0.00 0.15 0.00 95 998.5
20260905010050 7 0 0.0 1.6 0.00 0.15 0.00 95 998.6
20260905005535 7 0 0.0 1.6 0.00 0.20 0.00 95 998.5
20260905005034 7 0 0.0 3.2 0.00 0.20 0.00 95 998.5
20260905004550 8 0 0.0 3.2 0.00 0.20 0.00 95 998.5
20260905004034 8 353 0.0 0.0 0.00 0.20 0.00 95 998.4
20260905003535 7 0 0.0 0.0 0.00 0.20 0.00 95 998.4
20260905003044 7 0 0.0 1.6 0.00 0.20 0.00 95 998.6
20260905002534 7 0 0.0 3.2 0.00 0.20 0.00 94 998.5
20260905002035 7 289 0.0 3.2 0.00 0.20 0.00 95 998.4
20260905001552 8 300 0.0 3.2 0.00 0.20 0.00 95 998.3
20260905001035 8 0 0.0 0.0 0.00 0.20 0.00 95 998.3
20260905000538 7 0 0.0 0.0 0.00 0.20 0.00 95 998.5
20260905000105 8 0 0.0 0.0 0.00 0.20 0.00 95 998.4
20260904235531 8 0 0.0 1.6 0.00 0.20 0.00 95 998.3
20260904235032 7 0 0.0 1.6 0.00 0.20 0.00 94 998.4
20260904234606 7 110 0.0 1.6 0.00 0.20 0.00 94 998.3
20260904234031 7 0 0.0 0.0 0.00 0.20 0.00 94 998.2
20260904233534 7 0 0.0 0.0 0.00 0.20 0.00 94 998.2
20260904233056 7 0 0.0 1.6 0.00 0.20 0.00 94 998.2
20260904232536 8 0 0.0 4.8 0.00 0.20 0.00 94 998.1
20260904232035 8 356 1.6 4.8 0.00 0.20 0.00 94 998.2
20260904231553 8 352 1.6 3.2 0.00 0.20 0.00 94 998.1
20260904231035 8 355 0.0 3.2 0.00 0.20 0.00 94 998.2
20260904230535 8 352 0.0 3.2 0.00 0.20 0.00 94 998.2
20260904230048 8 0 0.0 0.0 0.00 0.20 0.00 94 998.3
20260904225531 8 0 0.0 0.0 0.00 0.20 0.00 94 998.3
20260904225034 8 0 0.0 0.0 0.00 0.20 0.00 94 998.3
20260904224546 8 0 0.0 0.0 0.00 0.20 0.00 93 998.3
20260904224035 8 0 0.0 0.0 0.00 0.20 0.00 93 998.2
20260904223536 8 0 0.0 0.0 0.00 0.20 0.00 93 998.2
20260904223056 8 0 0.0 0.0 0.00 0.20 0.00 93 998.1
20260904222533 8 0 0.0 0.0 0.00 0.20 0.00 93 998.2
20260904222032 8 0 0.0 0.0 0.00 0.20 0.00 93 998.3
20260904221600 8 0 0.0 0.0 0.00 0.20 0.00 93 998.2
20260904221033 8 0 0.0 0.0 0.00 0.20 0.00 93 998.3
20260904220532 8 0 0.0 0.0 0.00 0.20 0.00 93 998.3
20260904220111 8 0 0.0 0.0 0.00 0.20 0.00 92 998.2
20260904215532 8 0 0.0 0.0 0.00 0.20 0.20 92 998.2
20260904215031 8 0 0.0 0.0 0.00 0.20 0.20 92 998.1